Regional Weather Roundup
Issued by NWS

Home | Current Version | Previous Version | Text Only | Print | Product List | Glossary On
Versions: 1 2 3 4 5 6 7 8 9 10 11 12 13 14 15 16 17 18 19 20 21 22 23 24 25 26 27 28 29 30 31 32 33 34 35 36 37 38 39 40 41 42 43 44 45 46 47 48 49 50
066
ASUS43 KBIS 290410
RWRND

NORTH DAKOTA REGIONAL WEATHER ROUNDUP
NATIONAL WEATHER SERVICE BISMARCK ND
1100 PM CDT FRI APR 28 2017

NOTE: "FAIR" INDICATES FEW OR NO CLOUDS BELOW 12,000 FEET WITH NO
SIGNIFICANT WEATHER AND/OR OBSTRUCTIONS TO VISIBILITY.


NDZ001>003-009>011-017-290500-
NORTHWEST NORTH DAKOTA

CITY           SKY/WX    TMP DP  RH WIND       PRES   REMARKS
WILLISTON      FAIR      46  24  42 SW5       30.15R
MINOT          FAIR      45  20  36 S3        30.16R
MINOT AFB      CLEAR     38  29  69 S5        30.15R
$$

NDZ018>021-031>035-040>046-290500-
SOUTHWEST NORTH DAKOTA

CITY           SKY/WX    TMP DP  RH WIND       PRES   REMARKS
BISMARCK       FAIR      43  20  39 NE3       30.19R HAZE
DICKINSON      FAIR      34  16  47 SE5       30.17R
GARRISON         N/A     42  19  39 W5        30.17R
HETTINGER ARPT CLOUDY    36  22  56 CALM      30.20R
$$

NDZ004>008-012>016-024-026-027-054-290500-
NORTHEAST NORTH DAKOTA

CITY           SKY/WX    TMP DP  RH WIND       PRES   REMARKS
GRAND FORKS    CLEAR     38  28  67 NW6       30.16R
GRND FRKS AFB  CLEAR     36  25  66 N5        30.17R
DEVILS LAKE    FAIR      40  26  57 SE5       30.18R
$$

NDZ022-023-025-028>030-036>039-047>053-290500-
SOUTHEAST NORTH DAKOTA

CITY           SKY/WX    TMP DP  RH WIND       PRES   REMARKS
FARGO          CLOUDY    38  25  59 N6        30.16R
JAMESTOWN      FAIR      40  24  53 CALM      30.16R
$$





USA.gov is the U.S. government's official web portal to all federal, state and local government web resources and services.